小惑星2010 OA101

2010 OA101

English version
Home page
Updated on August 21, 2010

---------------------------------------------------------------------

・ プロフィール

発見日 2010年7月17日
発見光度 20等
発見者 Wide Field Infrared Survey Explorer (NASA)

・ 軌道要素

The following orbital elements are taken from MPEC 2010-Q14:

Epoch 2010 July 23.0 TT = JDT 2455400.5                 MPC
M 355.52441              (2000.0)            P               Q
n   0.10286085     Peri.  198.00181     +0.91027722     -0.26309067
a   4.5113097      Node   161.26667     -0.13187528     +0.54762753
e   0.6930347      Incl.   84.44179     -0.39243381     -0.79428420
P   9.58           H   18.6           G   0.15           U   5
From 33 observations 2010 July 17-Aug. 19, mean residual 0".44.

・ 光度変化

        H = 18.6  G = 0.15

---------------------------------------------------------------------

軌道要素はMPCのEphemerides and Orbital Elementsに掲載されたものです。
光度グラフはComet for Windowsで作成したものです。

---------------------------------------------------------------------

Copyright(C) Seiichi Yoshida (comet@aerith.net). All rights reserved.